Miscellaneous Local Product
Issued by NWS Hastings, NE

Home | Current Version | Previous Version | Graphics & Text | Print | Product List | Glossary On
Versions: 1 2 3 4 5 6 7 8 9 10 11 12 13 14 15 16 17 18 19 20 21 22 23 24 25 26 27 28 29 30 31 32 33 34 35 36 37 38 39 40 41 42 43 44 45 46 47 48 49 50
104
AXUS43 KGID 192202
MISGRI

GID CWA HOURLY WEATHER ROUNDUP
NATIONAL WEATHER SERVICE HASTINGS NE
500 PM CDT SAT AUG 19 2017

NOTE: "FAIR" INDICATES FEW OR NO CLOUDS BELOW 12,000 FEET WITH NO
SIGNIFICANT WEATHER AND/OR OBSTRUCTIONS TO VISIBILITY.

...SOUTH CENTRAL NEBRASKA...

CITY           SKY/WX    TMP DP  RH WIND       PRES   REMARKS
GRAND ISLAND   SUNNY     85  72  65 SE14      29.87F HX  91
HASTINGS       SUNNY     90  65  43 S10G20    29.88F HX  92
KEARNEY        SUNNY     89  71  55 S15       29.87F HX  95
ORD            SUNNY     88  68  51 SE12G21   29.84F HX  91
YORK           SUNNY     86  70  58 S8        29.88F HX  90
AURORA         SUNNY     85  69  59 SE12      29.88F
LEXINGTON      SUNNY     91  71  52 SE15      29.86F HX  96
HOLDREGE       SUNNY     90  66  45 SE12      29.86F HX  92
HEBRON         SUNNY     92  67  44 S9        29.88F HX  95

...NEBRASKA PANHANDLE...

CITY           SKY/WX    TMP DP  RH WIND       PRES   REMARKS
CHADRON        SUNNY     96  37  12 W15G25    29.85F HX  91
ALLIANCE       SUNNY     91  43  18 N8        29.90F
SCOTTSBLUFF    SUNNY     95  34  11 VRB6      29.91F HX  90
SIDNEY         SUNNY     96  40  14 N10       29.95S HX  92

...WESTERN AND NORTH CENTRAL NEBRASKA...

CITY           SKY/WX    TMP DP  RH WIND       PRES   REMARKS
VALENTINE      SUNNY     97  52  21 W7        29.80S HX  94
AINSWORTH      MOSUNNY   92  66  42 SW12G17   29.81F HX  95
ONEILL         SUNNY     85  69  59 SE16G23   29.84S
BROKEN BOW     MOSUNNY   92  69  47 S18       29.86F HX  97
IMPERIAL       SUNNY     97  55  24 S13       29.87F HX  95
NORTH PLATTE   SUNNY     91  66  43 S18G28    29.84F HX  93
MCCOOK         SUNNY     97  64  33 S17G29    29.84F HX  99

...EASTERN NEBRASKA...

CITY           SKY/WX    TMP DP  RH WIND       PRES   REMARKS
NORFOLK        SUNNY     82  65  56 S16       29.86F
SO SIOUX CITY  SUNNY     82  66  58 S10       29.87F
TEKAMAH        SUNNY     83  63  50 SE8       29.88F
COLUMBUS       SUNNY     83  68  60 SE13      29.88F
ALBION         SUNNY     84  71  64 SE16      29.87F
OMAHA EPPLEY   MOSUNNY   88  59  37 S12       29.89F
OFFUTT AFB     SUNNY     87  59  37 SE10      29.90F
MILLARD        SUNNY     87  64  46 SE12      29.90F
LINCOLN        SUNNY     87  65  47 SE12      29.89F
NEBRASKA CITY  SUNNY     86  64  46 SE8       29.92F
BEATRICE       SUNNY     95  61  32 SE7       29.88S HX  95
FALLS CITY     SUNNY     88  65  46 E12       29.89F HX  90

...NORTHERN KANSAS...

CITY           SKY/WX    TMP DP  RH WIND       PRES   REMARKS
GOODLAND       SUNNY     93  57  29 SW17G24   29.91F HX  91
HILL CITY      SUNNY    101  54  20 S10G22    29.85F HX  99
NORTON         CLEAR     93  48  21 SE8       29.85  HX  90
PHILLIPSBURG   SUNNY     97  57  26 SE13      29.85F HX  95
SMITH CENTER   SUNNY     91  55  29 SE14G20   29.87F
HAYS           SUNNY     97  63  32 SE16      29.86F HX  98
RUSSELL        SUNNY     97  61  30 SE14      29.86F HX  97
CONCORDIA      SUNNY     92  67  43 SE9       29.88F HX  95
SALINA         SUNNY    101  56  22 S10G17    29.87S HX 100
TOPEKA         SUNNY     92  71  50 E9        29.90F HX  98



USA.gov is the U.S. government's official web portal to all federal, state and local government web resources and services.